This is the latest recevied weather packets stored in our database for station/object WB9TLH-11. If no packets are shown the sender has not sent any weather packets the latest 10 day(s).
| Time | Temp. | Humidity | Pressure | Rain* | Wind** | Luminosity | Snow |
|---|---|---|---|---|---|---|---|
| 1777568765 | 14.44° C | 37% | 1018.2 hPa | 0 mm | - | - | - |
| 1777568465 | 14.44° C | 36% | 1018.3 hPa | 0 mm | - | - | - |
| 1777568165 | 14.44° C | 37% | 1018.3 hPa | 0 mm | - | - | - |
| 1777567865 | 13.89° C | 39% | 1018.4 hPa | 0 mm | - | - | - |
| 1777567565 | 13.89° C | 36% | 1018.6 hPa | 0 mm | - | - | - |
| 1777567265 | 13.33° C | 37% | 1018.4 hPa | 0 mm | - | - | - |
| 1777566965 | 13.33° C | 41% | 1018.3 hPa | 0 mm | - | - | - |
| 1777566665 | 13.33° C | 37% | 1018.3 hPa | 0 mm | - | - | - |
| 1777566365 | 13.89° C | 36% | 1018.3 hPa | 0 mm | - | - | - |
| 1777566065 | 13.89° C | 43% | 1018.3 hPa | 0 mm | - | - | - |
| 1777565765 | 13.33° C | 42% | 1018.3 hPa | 0 mm | - | - | - |
| 1777565465 | 13.33° C | 41% | 1018.3 hPa | 0 mm | - | - | - |
| 1777565165 | 13.33° C | 43% | 1018.4 hPa | 0 mm | - | - | - |
| 1777564865 | 13.33° C | 45% | 1018.4 hPa | 0 mm | - | - | - |
| 1777564565 | 13.33° C | 47% | 1018.4 hPa | 0 mm | - | - | - |
| 1777564265 | 13.33° C | 49% | 1018.3 hPa | 0 mm | - | - | - |
| 1777563965 | 12.78° C | 48% | 1018.3 hPa | 0 mm | - | - | - |
| 1777563665 | 12.78° C | 47% | 1018.4 hPa | 0 mm | - | - | - |
| 1777563365 | 12.78° C | 49% | 1018.6 hPa | 0 mm | - | - | - |
| 1777563065 | 12.78° C | 46% | 1018.7 hPa | 0 mm | - | - | - |
| 1777562765 | 12.22° C | 50% | 1018.6 hPa | 0 mm | - | - | - |
| 1777562465 | 12.22° C | 48% | 1018.4 hPa | 0 mm | - | - | - |
| 1777562165 | 12.22° C | 47% | 1018.4 hPa | 0 mm | - | - | - |
| 1777561865 | 11.67° C | 50% | 1018.4 hPa | 0 mm | - | - | - |
| 1777561565 | 11.67° C | 53% | 1018.4 hPa | 0 mm | - | - | - |
* Rain latest hour (hover to see other rain measurements)
** Current wind speed in m/s (hover to see current wind gust speed)